Location: Callanans Corners
(42.5326°N, 73.8846°W)
Time: 18:26:08
(UTC+00:00)

Lacrosse 4 Rocket - Pass Details

Date: 06 October 2022
Orbit: 533 x 616 km, 68.0° (Epoch: 05 December)

Event Time Altitude Azimuth Distance (km) Brightness Sun altitude
Rises 23:00:43 0° 182° (S) 2,678 4.9 -6.8°
Reaches altitude 10° 23:03:04 10° 170° (S) 1,801 3.9 -7.2°
Maximum altitude 23:06:33 29° 110° (ESE) 1,026 2.2 -7.9°
Drops below altitude 10° 23:10:08 10° 50° (NE) 1,849 3.6 -8.5°
Sets 23:12:35 0° 39° (NE) 2,766 4.5 -9.0°
